User: anonymous   Login
Location: ??
(34.9170°N, 135.5016°E)
Time: 03:43:08
(UTC+00:00)
Language:

Cosmos 1428 Rocket - Orbit

View from above orbital plane
View from above orbital plane
View from above satellite
View from above satellite

Ground track
Ground track

The orbit data is extracted from the following two-line orbital elements,

1 13758U 83001B   21015.54025663  .00000095  00000-0  78747-4 0  9997
2 13758  82.9100  48.4880 0025910 270.9477  88.8712 13.78795857911680
Epoch (UTC): 15 January 2021 12:57:58
Eccentricity: 0.0025910
inclination: 82.9100°
perigee height: 949 km
apogee height: 987 km
right ascension of ascending node: 48.4880°
argument of perigee: 270.9477°
revolutions per day: 13.78795857
mean anomaly at epoch: 88.8712°
orbit number at epoch: 91168

The dashed part of the orbit path shows where the satellite is in the earth's shadow,  

DLR